[[{"header":{"parameterUnit":"m.s-1","parameterCategory":1,"la1":30.2991,"la2":30.254,"lo1":-89.0895,"lo2":-89.0444,"dy":0.0017,"dx":0.0017,"nx":28,"ny":28,"refTime":"2024-05-13T03:00:00:Z","depth":0,"parameterNumber":2,"parameterNumberName":"U-component_of_WINDS"},"data":[0,0,0,0,0,0,0,0,0,0,0,0,0,0,0,0,0,0,0,0,0,0,0,0,0,0,0,0,0,0,0,0,0,0,0,0,0,0,0,0,0,0,0,0,0,0,0,0,0,0,0,0,0,0,0,0,0,0,-6.222,-6.2219,0,-6.219,-6.2189,-6.2189,-6.2077,-6.2075,-6.2072,-6.207,-6.2041,-6.2042,-6.2044,0,0,0,0,0,0,0,0,0,0,0,0,0,-6.2183,-6.2184,-6.222,-6.2219,-6.2219,-6.219,-6.2189,-6.2189,-6.2078,-6.2075,-6.2071,-6.2068,-6.204,-6.2042,-6.2044,0,0,0,0,0,0,0,0,0,0,0,0,0,-6.2181,-6.2185,-6.222,-6.216,-6.2154,-6.219,-6.2189,-6.2189,-6.2078,-6.2074,-6.2071,-6.2067,-6.204,-6.2042,-6.2044,-6.2136,0,0,-6.2052,-6.2053,0,0,0,0,0,0,0,0,-6.2181,-6.2182,-6.2169,-6.2164,-6.2158,-6.2133,-6.2166,-6.2171,-6.2079,-6.2107,-6.207,-6.2065,-6.2075,-6.2074,-6.2077,-6.2135,-6.2134,-6.2052,-6.2054,-6.2055,-6.2055,0,0,0,0,0,0,0,-6.2181,-6.2183,-6.2208,-6.2169,-6.2162,-6.2135,-6.2131,-6.2166,-6.2113,-6.2104,-6.2096,-6.2094,-6.2071,-6.2075,-6.2075,-6.2133,-6.2052,-6.2054,-6.2056,-6.2057,-6.2266,-6.2269,0,0,0,0,0,0,-6.219,-6.2184,-6.2209,-6.2207,-6.216,-6.2139,-6.2134,-6.2145,-6.2112,-6.2103,-6.2097,-6.2089,-6.2073,-6.2073,-6.2074,-6.2178,-6.2055,-6.2057,-6.2058,-6.2261,-6.2266,-6.2271,0,0,0,0,0,0,-6.2189,-6.2193,-6.221,-6.2193,-6.2193,-6.2144,-6.2157,-6.2146,-6.215,-6.2107,-6.2097,-6.2111,-6.207,-6.2071,-6.2121,-6.2176,-6.2058,-6.206,-6.2257,-6.2263,-6.2269,-6.2389,0,0,0,0,0,0,-6.2189,-6.2194,-6.2227,-6.2195,-6.2195,-6.2257,-6.216,-6.2149,-6.2154,-6.2143,-6.2117,-6.2109,-6.2067,-6.2119,-6.2124,-6.2177,-6.2062,-6.2251,-6.2259,-6.2267,-6.238,-6.2398,-6.2414,0,0,0,0,0,-6.2188,-6.2262,-6.2229,-6.2233,-6.2235,-6.2261,-6.226,-6.221,-6.2159,-6.2193,-6.2165,-6.211,-6.217,-6.2125,-6.213,-6.2185,-6.2248,-6.2257,-6.2266,-6.2372,-6.2394,-6.2414,0,0,0,0,0,0,-6.2302,-6.2257,-6.2219,-6.2285,-6.2278,-6.2242,-6.2282,-6.2235,-6.2242,-6.2231,-6.2169,-6.2164,-6.2224,-6.221,-6.216,-6.2272,-6.22,-6.221,-6.2278,-6.2299,-6.2316,-6.2317,-6.2064,0,0,0,0,0,-6.2335,-6.2358,-6.2318,-6.238,-6.2378,-6.2332,-6.2341,-6.2303,-6.2292,-6.2288,-6.2264,-6.2257,-6.2274,-6.2287,-6.23,-6.2379,-6.2371,-6.2419,-6.2436,-6.2451,-6.246,-6.25,-6.252,-6.2301,-6.2301,-6.2301,0,0,-6.2402,-6.2381,-6.2399,-6.2403,-6.2392,-6.2418,-6.2329,-6.2361,-6.238,-6.2293,-6.2339,-6.2322,-6.231,-6.2375,-6.2403,-6.2365,-6.2519,-6.2462,-6.2474,-6.2475,-6.2511,-6.2532,-6.2551,-6.2307,-6.2306,-6.2305,0,0,-6.2539,-6.2526,-6.2575,-6.2567,-6.2552,-6.2521,-6.2534,-6.2506,-6.2491,-6.2536,-6.2472,-6.2495,-6.2526,-6.2519,-6.252,-6.2658,-6.2607,-6.2665,-6.2754,-6.2794,-6.2811,-6.2826,-6.2873,-6.2892,-6.2675,-6.2675,-6.2675,0,-6.2624,-6.2661,-6.2607,-6.2643,-6.2646,-6.257,-6.2621,-6.2616,-6.2607,-6.2611,-6.257,-6.2608,-6.2594,-6.2657,-6.2691,-6.2695,-6.2707,-6.2666,-6.2813,-6.2827,-6.284,-6.2885,-6.2903,-6.2682,-6.2681,-6.2681,-6.268,0,-6.2767,-6.2793,-6.2836,-6.2829,-6.2837,-6.2881,-6.2835,-6.285,-6.2813,-6.2787,-6.2835,-6.2817,-6.2825,-6.2838,-6.2802,-6.2896,-6.2873,-6.2824,-6.2749,-6.2869,-6.291,-6.2927,-6.2692,-6.2689,-6.2687,-6.2686,0,0,-6.2969,-6.2934,-6.295,-6.2946,-6.2927,-6.2946,-6.2988,-6.2996,-6.301,-6.3008,-6.304,-6.307,-6.3024,-6.3026,-6.2989,-6.3025,-6.3134,-6.297,-6.2969,-6.2999,-6.3235,-6.327,-6.3291,-6.3102,-6.3105,-6.3107,-6.3236,0,-6.3097,-6.3163,-6.3118,-6.3192,-6.3216,-6.3146,-6.3182,-6.3174,-6.3152,-6.317,-6.3146,-6.3167,-6.3106,-6.3106,-6.3139,-6.3114,-6.318,-6.3104,-6.313,-6.3132,-6.3132,-6.3313,-6.3349,-6.3471,-6.3251,-6.3254,-6.3256,0,-6.3254,-6.3258,-6.3335,-6.3311,-6.3319,-6.3352,-6.3356,-6.3375,-6.3366,-6.3347,-6.3351,-6.3305,-6.3345,-6.3274,-6.3328,-6.3277,-6.3286,-6.3276,-6.328,-6.3277,-6.3199,-6.3313,-6.3509,-6.3527,-6.3281,-6.3279,-6.3277,0,-6.3392,-6.3418,-6.3466,-6.3466,-6.344,-6.3464,-6.3455,-6.3442,-6.345,-6.3455,-6.346,-6.347,-6.3475,-6.3484,-6.3443,-6.3396,-6.3502,-6.3428,-6.3487,-6.3488,-6.3509,-6.3508,-6.3707,-6.352,-6.352,-6.352,-6.3519,0,-6.3537,-6.3586,-6.3528,-6.3558,-6.3611,-6.356,-6.3615,-6.3598,-6.3588,-6.3614,-6.3556,-6.3581,-6.3527,-6.3548,-6.3517,-6.3565,-6.3569,-6.3554,-6.3545,-6.3558,-6.3559,-6.356,-6.3549,-6.3525,-6.3524,-6.3523,-6.3522,0,-6.3698,-6.3661,-6.371,-6.3682,-6.3676,-6.3717,-6.3693,-6.372,-6.3696,-6.373,-6.3735,-6.3696,-6.3717,-6.3679,-6.3695,-6.3674,-6.3742,-6.3721,-6.3745,-6.3737,-6.3797,-6.3791,-6.4001,-6.4025,-6.3826,-6.3828,-6.383,0,-6.3792,-6.3828,-6.3805,-6.3818,-6.3811,-6.3834,-6.3842,-6.3795,-6.3806,-6.3799,-6.3827,-6.3844,-6.3854,-6.3893,-6.3866,-6.3879,-6.3856,-6.3929,-6.3858,-6.387,-6.3855,-6.3852,-6.3855,-6.3943,-6.3945,-6.3947,-6.3949,0,-6.3961,-6.3942,-6.3956,-6.3965,-6.3976,-6.3981,-6.3981,-6.3996,-6.3946,-6.3962,-6.3983,-6.3991,-6.4009,-6.4026,-6.4033,-6.4024,-6.3978,-6.3972,-6.3986,-6.3998,-6.4009,-6.4002,-6.3782,-6.3967,-6.3965,-6.3964,-6.3963,-6.3962,-6.409,-6.4119,-6.4107,-6.4125,-6.4121,-6.4123,-6.4147,-6.4126,-6.4143,-6.4153,-6.4125,-6.4153,-6.4145,-6.4149,-6.4145,-6.4167,-6.4135,-6.4155,-6.416,-6.4165,-6.4174,-6.4009,-6.4169,-6.4168,-6.4168,-6.4167,-6.4167,0,-6.4254,-6.4244,-6.4262,-6.4264,-6.4279,-6.4236,-6.4235,-6.425,-6.4275,-6.4272,-6.4284,-6.4309,-6.4326,-6.4302,-6.4316,-6.4338,-6.4317,-6.4342,-6.4339,-6.4337,-6.4203,-6.4188,-6.4359,-6.4359,-6.4359,-6.4359,-6.4359,-6.4359,-6.4341,-6.4388,-6.4368,-6.4412,-6.4402,-6.4428,-6.4431,-6.4434,-6.443,-6.4461,-6.4475,-6.4459,-6.4448,-6.446,-6.4474,-6.4467,-6.4474,-6.4506,-6.4492,-6.4366,-6.4347,-6.4329,-6.4315,-6.4509,-6.4509,-6.4624,-6.4625,-6.4626]},{"header":{"parameterUnit":"m.s-1","parameterCategory":1,"la1":30.2991,"la2":30.254,"lo1":-89.0895,"lo2":-89.0444,"dy":0.0017,"dx":0.0017,"nx":28,"ny":28,"refTime":"2024-05-13T03:00:00:Z","depth":0,"parameterNumber":3,"parameterNumberName":"V-component_of_WINDS"},"data":[0,0,0,0,0,0,0,0,0,0,0,0,0,0,0,0,0,0,0,0,0,0,0,0,0,0,0,0,0,0,0,0,0,0,0,0,0,0,0,0,0,0,0,0,0,0,0,0,0,0,0,0,0,0,0,0,0,0,3.0248,3.0247,0,3.0239,3.0239,3.0239,3.0256,3.0257,3.0258,3.0258,3.0244,3.0243,3.0242,0,0,0,0,0,0,0,0,0,0,0,0,0,3.0276,3.0275,3.0248,3.0247,3.0247,3.0239,3.0239,3.0239,3.0256,3.0257,3.0258,3.0258,3.0244,3.0243,3.0242,0,0,0,0,0,0,0,0,0,0,0,0,0,3.0265,3.0275,3.0248,3.0255,3.0256,3.0239,3.0239,3.0239,3.0256,3.0257,3.0258,3.0259,3.0244,3.0243,3.0242,3.0215,0,0,3.0237,3.0237,0,0,0,0,0,0,0,0,3.0265,3.0264,3.0254,3.0255,3.0255,3.025,3.0244,3.0231,3.0256,3.0256,3.0258,3.0259,3.0245,3.0243,3.024,3.0215,3.0214,3.0237,3.0236,3.0236,3.0235,0,0,0,0,0,0,0,3.0266,3.0264,3.0244,3.0254,3.0255,3.0258,3.0257,3.0241,3.0245,3.0256,3.0257,3.0256,3.0245,3.0241,3.0239,3.0214,3.0237,3.0236,3.0235,3.0235,3.0169,3.0168,0,0,0,0,0,0,3.0266,3.0265,3.0244,3.0244,3.0263,3.0257,3.0256,3.0251,3.0245,3.0246,3.0255,3.0257,3.0243,3.0241,3.0239,3.0209,3.0236,3.0235,3.0234,3.0169,3.0168,3.0167,0,0,0,0,0,0,3.0267,3.0264,3.0245,3.0255,3.0252,3.0255,3.0249,3.025,3.0246,3.0245,3.0246,3.0251,3.0243,3.0241,3.0222,3.0209,3.0234,3.0233,3.0171,3.0169,3.0168,3.0148,0,0,0,0,0,0,3.0268,3.0265,3.0255,3.0254,3.0252,3.0229,3.0248,3.0249,3.0244,3.0246,3.0241,3.0241,3.0244,3.0224,3.022,3.0207,3.0232,3.0172,3.017,3.0168,3.015,3.0146,3.0143,0,0,0,0,0,3.0269,3.0248,3.0255,3.0252,3.024,3.0228,3.0226,3.0232,3.0243,3.0233,3.0233,3.0241,3.0211,3.0222,3.0218,3.0204,3.0173,3.017,3.0168,3.0151,3.0147,3.0143,0,0,0,0,0,0,3.0245,3.0248,3.0255,3.0234,3.0231,3.0231,3.0219,3.0227,3.0219,3.0221,3.0226,3.0225,3.0205,3.0203,3.0215,3.0179,3.0193,3.019,3.0181,3.0177,3.0174,3.0174,3.023,0,0,0,0,0,3.0238,3.0229,3.0232,3.0213,3.0211,3.0215,3.021,3.0215,3.0211,3.0209,3.0207,3.0202,3.0192,3.0184,3.0174,3.015,3.0149,3.0138,3.0135,3.0132,3.0129,3.0117,3.0113,3.0161,3.0161,3.0161,0,0,3.0222,3.0223,3.0216,3.0208,3.0206,3.0196,3.0214,3.0201,3.0194,3.0206,3.0189,3.0188,3.0182,3.0161,3.0151,3.0158,3.0116,3.0129,3.0127,3.0126,3.0115,3.011,3.0106,3.0159,3.0159,3.016,0,0,3.0188,3.0188,3.0173,3.0171,3.0169,3.0172,3.0169,3.0168,3.0169,3.0152,3.0162,3.0152,3.0133,3.013,3.0125,3.0092,3.0099,3.0089,3.007,3.0059,3.0055,3.0052,3.0041,3.0036,3.0086,3.0086,3.0086,0,3.0168,3.0155,3.0164,3.0152,3.0148,3.0162,3.0147,3.0144,3.0138,3.0134,3.0143,3.0122,3.0118,3.0097,3.0089,3.0085,3.0081,3.0089,3.0055,3.0052,3.0049,3.0038,3.0034,3.0085,3.0085,3.0085,3.0085,0,3.0131,3.0121,3.0109,3.0106,3.01,3.0086,3.0093,3.0087,3.0093,3.0095,3.0078,3.0075,3.0066,3.0061,3.0066,3.0041,3.0046,3.0054,3.0069,3.0043,3.0033,3.0029,3.0083,3.0084,3.0084,3.0084,0,0,3.008,3.0084,3.0079,3.0079,3.0078,3.007,3.0057,3.005,3.0045,3.0041,3.003,3.0015,3.0024,3.0019,3.0024,3.0013,2.9989,3.0024,3.0024,3.0018,2.9962,2.9955,2.9951,2.9994,2.9993,2.9993,2.9963,0,3.0047,3.0027,3.0036,3.0014,3.0006,3.002,3.0009,3.0007,3.0009,3.0001,3.0003,2.9993,3.0005,3.0003,2.9993,2.9994,2.9978,2.9996,2.9983,2.9983,2.9984,2.9945,2.9938,2.991,2.9959,2.9958,2.9958,0,3.0006,3.0003,2.9981,2.9984,2.998,2.997,2.9966,2.9958,2.9957,2.9959,2.9955,2.9962,2.9949,2.9964,2.9946,2.9959,2.9954,2.9954,2.9953,2.9952,2.9968,2.9943,2.9901,2.9897,2.9952,2.9952,2.9953,0,2.9972,2.9962,2.9948,2.9947,2.995,2.9943,2.9943,2.9942,2.9938,2.9934,2.9931,2.9924,2.992,2.9915,2.992,2.993,2.9902,2.9917,2.9903,2.9903,2.9895,2.9896,2.9852,2.9892,2.9892,2.9893,2.9893,0,2.9934,2.992,2.9933,2.9925,2.991,2.992,2.9905,2.9907,2.9906,2.9898,2.9909,2.99,2.9908,2.99,2.9904,2.9889,2.9887,2.9888,2.9889,2.9887,2.9887,2.9884,2.9886,2.9891,2.9892,2.9892,2.9892,0,2.9894,2.9902,2.9888,2.9893,2.9894,2.9883,2.9886,2.9878,2.9882,2.9871,2.9869,2.9875,2.9866,2.9871,2.9862,2.9865,2.9845,2.9849,2.9847,2.9848,2.9834,2.9835,2.9786,2.978,2.9824,2.9824,2.9824,0,2.9869,2.9859,2.9864,2.986,2.9861,2.9854,2.9851,2.9861,2.9857,2.9855,2.9847,2.984,2.9835,2.9821,2.9823,2.9816,2.982,2.9804,2.9819,2.9818,2.982,2.9821,2.982,2.98,2.98,2.9799,2.9799,0,2.9825,2.983,2.9826,2.9824,2.982,2.9818,2.9817,2.9812,2.9822,2.9817,2.981,2.9806,2.9798,2.9791,2.9786,2.9785,2.9793,2.9794,2.9791,2.9788,2.9788,2.9789,2.9838,2.9795,2.9795,2.9796,2.9796,2.9796,2.9792,2.9785,2.9788,2.9783,2.9784,2.9783,2.9776,2.978,2.9775,2.9771,2.9776,2.9767,2.9767,2.9761,2.976,2.9753,2.9759,2.9754,2.9753,2.9751,2.975,2.9789,2.9752,2.9752,2.9752,2.9752,2.9752,0,2.975,2.9753,2.9748,2.9748,2.9744,2.9754,2.9754,2.975,2.9743,2.9742,2.9738,2.973,2.9724,2.9727,2.9721,2.9715,2.9719,2.9713,2.9713,2.9713,2.9744,2.9748,2.971,2.971,2.971,2.971,2.971,2.971,2.9727,2.9716,2.9721,2.971,2.9713,2.9706,2.9705,2.9704,2.9704,2.9696,2.9692,2.9694,2.9695,2.969,2.9685,2.9686,2.9683,2.9677,2.9679,2.9707,2.9711,2.9715,2.9719,2.9676,2.9676,2.9649,2.9649,2.9649]}]]